Portada
METAR-TAF:

METAR-TAF

Aeroports :

Thomson-McDuffie County Airport

Thomson, Geòrgia, Estats Units d'Amèrica

latitud: 33-31-46N, longitud: 082-30-59W, altitud: 152 m

Observació

L'informe es va fer fa 29 minuts, a les 04:35 UTC
Vent calma
Temperatura 18°C
Humitat 100%
Pressió 1021 hPa
Visibilitat: 16.1 km
Núvols disperses a una alçada de 4200 ft

METAR: KHQU 230435Z AUTO 00000KT 10SM SCT042 18/18 A3015 RMK AO2 T01820180

Hora: 01:04 (05:04 UTC)


TAF: manca

Observacions i pronòstics meteorològics de més de 4000 aeroports (METAR i TAF).

Les estacions disponibles són els punts grocs i vermells al mapa.

Posi el ratolí al punt desitjat per veure el nom de l'estació.

Feu clic per veure les observacions i els pronòstics meteorològics.

Per canviar el mapa: feu clic els botons verds amb una creu de color negre per apropar; al botó verd amb un guió per allunyar la imatge; o en les fletxes verdes per a mapes adjacents.


METAR-TAF: